Location: Unspecified
(0.0000°N, 0.0000°E)
Time: 07:38:54
(UTC+00:00)

deb r/b Ablestar - Pass Details

Date: 16 February 2026
Orbit: 902 x 2195 km, 67.6° (Epoch: 14 March)

Event Time Altitude Azimuth Distance (km) Brightness Sun altitude
Rises 19:05:07 0° 192° (SSW) 4,895 ? -12.5°
Reaches altitude 10° 19:08:36 10° 188° (S) 3,712 ? -13.3°
Maximum altitude 19:17:14 59° 110° (ESE) 1,414 ? -15.4°
Enters shadow 19:23:21 12° 33° (NNE) 2,705 ? -16.9°
